Content
SEND FEEDBACK

Daily
Averages
Monthly
Summary
United States of America

COLLEGEVILLE, MINNESOTA


Home > North America > United States > Minnesota
Elevation: 1184 feet     Latitude: 45 34N     Longitude: 094 24W

WEATHER
 
SELECT A DAY
Number of Records: 214,804;   Date Range: 1/1/95 - 10/23/14
 
SHARE

PRINT THIS DATA

[ ← Previous Day ]
WEATHER ALMANAC - FEBRUARY 13, 2013
[ Next Day → ]
[ °C ]   °F
Weather ElementAverageHighLow
Temperature29 °F34 °F (1:53 pm)16 °F (2:53 am)
Dewpoint25.8 °F30.2 °F (4:49 pm)12.9 °F (2:53 am)
Humidity88.2 %100 % (6:11 pm)70 % (1:53 pm)
Barometer29.66 in29.82 in (1:53 am)29.57 in (8:10 pm)
Wind Speed5 mph10.4 mph (10:53 am)
Weather ElementAverage
Visibility3.5 mi
Wind DirectionSSE (147.9 °)

Weather ElementTotal
Precipitation0.61 in
Heating Degree Days40 (Base 65)
Averaged from 39 records on February 13, 2013
WEATHER CONDITIONS BREAKOUT
WIND DIRECTION BREAKOUT
WEATHER BY HOUR - FEBRUARY 13, 2013
[ °C ]   °F
Local TimeTemperatureDewpointHumidityBarometerVisibilityWind DirectionWind SpeedGust SpeedPrecipitationEventsConditions
1:53 AM19.0 °F15.1 °F85 %29.82 in9.0 miSW (220°)3.5 mphOvercast
2:53 AM16.0 °F12.9 °F88 %29.81 in8.0 miSSW (210°)3.5 mphScattered Clouds
3:53 AM17.1 °F15.1 °F92 %29.80 in6.0 miCalmMostly Cloudy
4:53 AM19.9 °F16.0 °F85 %29.78 in7.0 miCalmOvercast
5:53 AM17.1 °F14.0 °F88 %29.78 in5.0 miCalmMostly Cloudy
6:53 AM18.0 °F16.0 °F92 %29.76 in5.0 miCalmOvercast
7:53 AM21.0 °F17.1 °F85 %29.76 in5.0 miCalmOvercast
8:53 AM19.9 °F17.1 °F89 %29.75 in6.0 miSSW (200°)3.5 mphClear
9:53 AM26.1 °F19.9 °F78 %29.73 in9.0 miSSW (200°)5.8 mphClear
10:53 AM30.9 °F23.0 °F72 %29.72 in10.0 miSouth (190°)10.4 mphClear
11:53 AM32.0 °F25.0 °F75 %29.71 in10.0 miSouth (190°)8.1 mphClear
12:53 PM33.1 °F25.0 °F72 %29.69 in10.0 miSouth (190°)9.2 mphClear
1:53 PM34.0 °F25.0 °F70 %29.67 in10.0 miSouth (180°)6.9 mphPartly Cloudy
2:53 PM34.0 °F26.1 °F73 %29.67 in10.0 miSouth (190°)6.9 mphOvercast
3:53 PM34.0 °F27.0 °F75 %29.67 in6.0 miSouth (190°)8.1 mph0.00 inSnowLight Snow
4:01 PM33.8 °F26.6 °F75 %29.59 in2.0 miSSW (200°)9.2 mph0.00 inSnowLight Snow
4:09 PM33.8 °F28.4 °F81 %29.59 in1.5 miSouth (190°)8.1 mph0.00 inSnowLight Snow
4:49 PM32.0 °F30.2 °F93 %29.59 in0.8 miSouth (170°)4.6 mph0.01 inSnowLight Snow
4:53 PM32.0 °F30.0 °F92 %29.65 in0.5 miSSE (160°)3.5 mph0.01 inFog-SnowSnow
5:09 PM32.0 °F30.2 °F93 %29.58 in0.2 miSE (140°)4.6 mph0.02 inFog-SnowSnow
5:21 PM32.0 °F30.2 °F93 %29.58 in0.2 miSE (140°)4.6 mph0.03 inFog-SnowSnow
5:48 PM32.0 °F30.2 °F93 %29.58 in0.5 miSE (140°)6.9 mph0.06 inFog-SnowSnow
5:53 PM32.0 °F30.0 °F92 %29.65 in0.8 miSE (140°)5.8 mph0.06 inSnowLight Snow
6:11 PM30.2 °F30.2 °F100 %29.58 in0.5 miSE (130°)6.9 mph0.02 inFog-SnowSnow
6:53 PM30.9 °F30.0 °F96 %29.65 in0.8 miSE (140°)4.6 mph0.06 inSnowLight Snow
7:26 PM30.2 °F30.2 °F100 %29.58 in0.8 miCalm0.02 inSnowLight Snow
7:37 PM30.2 °F30.2 °F100 %29.58 in0.5 miCalm0.04 inFog-SnowSnow
7:53 PM32.0 °F30.0 °F92 %29.64 in0.8 miCalm0.06 inSnowLight Snow
8:10 PM30.2 °F30.2 °F100 %29.57 in0.5 miCalm0.01 inFog-SnowSnow
8:48 PM32.0 °F30.2 °F93 %29.57 in1.0 miNE (40°)4.6 mph0.03 inSnowLight Snow
8:53 PM32.0 °F30.0 °F92 %29.64 in1.0 miNNE (30°)4.6 mph0.03 inSnowLight Snow
9:15 PM30.2 °F28.4 °F93 %29.57 in1.0 miNNE (20°)5.8 mph0.01 inSnowLight Snow
9:53 PM30.9 °F28.9 °F92 %29.63 in1.0 miNorth (10°)6.9 mph0.02 inSnowLight Snow
10:40 PM32.0 °F28.4 °F87 %29.59 in1.0 miNorth (360°)8.1 mph0.02 inSnowLight Snow
10:50 PM32.0 °F30.2 °F93 %29.59 in0.8 miNorth (360°)6.9 mph0.03 inSnowLight Snow
10:53 PM32.0 °F30.0 °F92 %29.65 in0.8 miNorth (360°)8.1 mph0.03 inSnowLight Snow
11:03 PM32.0 °F30.2 °F93 %29.59 in1.0 miNorth (360°)9.2 mph0.01 inSnowLight Snow
11:25 PM32.0 °F30.2 °F93 %29.60 in1.2 miNorth (360°)9.2 mph0.01 inSnowLight Snow
11:53 PM32.0 °F30.0 °F92 %29.67 in1.5 miNorth (360°)8.1 mph0.02 inSnowLight Snow
Hourly data recorded from KSTC, located miles away from Collegeville, Minnesota







STORIES FROM OUR PARTNERS